Regional Weather Roundup
Issued by NWS

Home | Current Version | Previous Version | Graphics & Text | Print | Product List | Glossary On
Versions: 1 2 3 4 5 6 7 8 9 10 11 12 13 14 15 16 17 18 19 20 21 22 23 24 25 26 27 28 29 30 31 32 33 34 35 36 37 38 39 40 41 42 43 44 45 46 47 48 49 50
000
ASUS43 KFSD 252202
RWRSD

WEATHER ROUNDUP FOR SOUTH DAKOTA
NATIONAL WEATHER SERVICE SIOUX FALLS SD
400 PM CST SAT FEB 25 2017

NOTE: "FAIR" INDICATES FEW OR NO CLOUDS BELOW 12,000 FEET WITH NO
SIGNIFICANT WEATHER AND/OR OBSTRUCTIONS TO VISIBILITY.


SDZ001>005-009-010-012>017-252300-
NORTHWEST AND NORTH CENTRAL SOUTH DAKOTA

CITY           SKY/WX    TMP DP  RH WIND       PRES   REMARKS
BUFFALO          N/A     33  14  45 W20G28    29.65F WCI  21
FAITH            N/A     34  17  50 N10       29.75F WCI  26
MOBRIDGE       CLOUDY    33  23  66 N15       29.76R WCI  23
$$

SDZ012>016-024>037-041>051-057-063-072>074-252300-
SOUTHWEST AND SOUTH CENTRAL SOUTH DAKOTA

CITY           SKY/WX    TMP DP  RH WIND       PRES   REMARKS
RAPID CTY ARPT CLOUDY    30  22  72 VRB3      29.77F
PIERRE         CLOUDY    35  24  64 NW12G21   29.79F WCI  27
CUSTER         LGT SNOW  21  13  71 W10       29.66F WCI  10
ELLSWORTH AFB  FLURRIES  28  24  87 S7        29.76F WCI  20
PHILIP         MOSUNNY   39  10  30 NW16      29.78F
PINE RIDGE     PTSUNNY   29  17  61 W15       29.82F WCI  18
SPEARFISH      FAIR      30  16  55 SW12G20   29.72F WCI  21
WINNER         FAIR      36  24  62 SW9       29.83F
$$

SDZ004>011-016>023-039-040-252300-
NORTHEAST SOUTH DAKOTA

CITY           SKY/WX    TMP DP  RH WIND       PRES   REMARKS
ABERDEEN       CLOUDY    38  17  42 W10       29.77F
WATERTOWN      PTSUNNY   33  17  51 SW17      29.79F WCI  22
BROOKINGS      MOSUNNY   31  19  61 S17       29.83F WCI  19
SISSETON         N/A     39  20  46 W16G24    29.77F
$$

SDZ017-020-022-023-036>040-048>070-252300-
SOUTHEAST SOUTH DAKOTA

CITY           SKY/WX    TMP DP  RH WIND       PRES   REMARKS
SIOUX FALLS    MOSUNNY   28  17  63 S20       29.89F WCI  15
HURON          CLOUDY    39  19  44 W12       29.80F
CHAMBERLAIN    PTSUNNY   40  23  52 SW14      29.81F
MITCHELL       PTSUNNY   31  21  66 S16       29.86F WCI  20
YANKTON        SUNNY     30  16  55 S15G22    29.91F WCI  19
$$

ABBREVIATIONS USED IN REMARKS
   TC - TEMPERATURE IN CELSIUS
  WCI - WIND CHILL INDEX
   HX - HEAT INDEX
  VSB - VISIBILITY





USA.gov is the U.S. government's official web portal to all federal, state and local government web resources and services.